TIME,DELAY(SENSOR),PRES,T(CTD),SAL,OXYGEN,RAWTEMP,T(OPTODE),TCPHASE,FLUOR,BETA(BETA700),BETA(BETA412),BETA(BETA440),CDOM,C(CSC),ED(ED411.90),ED(ED443.80),ED(ED489.40),ED(ED554.70),LU(LU412.20),LU(LU443.80),LU(LU489.40),LU(LU555.00),COMP,TILTX,TILTX(TILTY),CHECK
1379084656,5806,496.6099853515625000,17.8054008483886720,36.5040016174316400,213.3571929931640600,161.7850036621093800,17.8009490966796880,31.9281005859375000,117,4130,48,50,48,9530,2146959533,2147516736,2147272036,2147450020,2147078098,2146952868,2147652992,2147126409,2224,-1,8,8226
1379084761,5807,486.0400085449219000,17.8857002258300780,36.5162010192871100,213.7785034179687500,159.1361999511718800,17.8809108734130860,31.8691101074218750,117,4130,46,50,48,9529,2146962971,2147516571,2147274377,2147454674,2147078006,2146957138,2147651812,2147129051,1172,-1,8,61399
1379084876,5807,474.4100036621094000,17.9689998626709000,36.5274009704589840,213.9934997558593800,156.4362030029297000,17.9624404907226560,31.8204994201660160,116,4130,49,50,47,9530,2146959826,2147518381,2147273728,2147451401,2147079040,2146957842,2147651840,2147127789,498,-1,7,46549
1379084991,5808,462.7000122070312500,18.0387992858886720,36.5379981994628900,215.3273925781250000,154.0437011718750000,18.0346908569335940,31.7162208557128900,117,4130,47,49,46,9533,2146960713,2147514020,2147271579,2147450331,2147082569,2146957760,2147656978,2147128027,2723,-1,8,53517
1379085122,5807,450.7799987792969000,18.0846004486084000,36.5419006347656250,215.5549011230468800,152.5823059082031200,18.0788402557373050,31.6840190887451170,117,4130,47,49,46,9532,2146960905,2147515556,2147272676,2147448795,2147079533,2146960768,2147651940,2147126893,2365,-1,8,7303
1379085263,5804,439.9700012207031000,18.1187992095947270,36.5438995361328100,215.9844970703125000,151.3791961669922000,18.1151790618896500,31.6446609497070300,118,4130,49,50,46,9537,2146959542,2147514541,2147273408,2147451136,2147072548,2146958710,2147654674,2147129033,2001,-2,8,55977
1379085416,5807,428.4800109863281000,18.1769008636474600,36.5489997863769500,216.3607940673828000,149.4042053222656200,18.1748409271240230,31.5980091094970700,118,4130,48,50,48,9534,2146957961,2147518244,2147272448,2147449874,2147074304,2146962221,2147656731,2147126994,572,-1,8,47659
1379085567,5806,417.6499938964844000,18.2029991149902340,36.5480003356933600,217.4676971435547000,148.6201019287109400,18.1985301971435550,31.5285301208496100,117,4130,48,50,46,9535,2146959826,2147517065,2147273188,2147447040,2147071332,2146961709,2147650560,2147124617,2981,-1,8,38020
1379085733,5808,404.6900024414062500,18.2479000091552730,36.5530014038085940,218.9335937500000000,147.1170043945312500,18.2439403533935550,31.4314308166503900,117,4130,48,50,48,9537,2146958354,2147516013,2147272283,2147447460,2147076032,2146960082,2147653970,2147126683,2703,-2,8,10765
1379085855,5805,393.3200073242187500,18.2947998046875000,36.5553016662597660,218.8477020263672000,145.5532989501953000,18.2911891937255860,31.4147605895996100,115,4130,47,50,47,9536,2146959725,2147515236,2147271122,2147450313,2147071963,2146956013,2147652150,2147127478,2173,-1,8,25656
1379085972,5806,382.6700134277344000,18.3174991607666000,36.5531997680664060,221.9761962890625000,144.8166961669922000,18.3134498596191400,31.2422008514404300,117,4130,49,50,47,9538,2146961764,2147514157,2147269641,2147448137,2147071341,2146953088,2147651885,2147129563,2042,-1,8,8889
1379086099,5808,371.5199890136719000,18.3575992584228500,36.5528984069824200,226.2642974853515600,143.5225067138672000,18.3525695800781250,31.0067405700683600,117,4130,47,50,47,9534,2146960768,2147521325,2147272850,2147450852,2147075264,2146956754,2147648731,2147127341,797,-1,8,42289
1379086226,5807,360.7799987792969000,18.3736991882324220,36.5499992370605500,229.3545989990234400,143.0030059814453000,18.3682708740234380,30.8458404541015620,116,4130,49,50,47,9537,2146960713,2147517120,2147272621,2147446765,2147078034,2146960100,2147651172,2147128438,3111,-1,8,33047
1379086367,5808,349.1900024414062500,18.3969993591308600,36.5513000488281250,232.2752075195312500,142.1997985839843800,18.3925495147705080,30.6914997100830080,117,4130,47,50,46,9537,2146960475,2147516141,2147273261,2147446829,2147072969,2146960338,2147652918,2147127250,2615,-1,8,34500
1379086494,5807,338.9800109863281000,18.4321994781494140,36.5540008544921900,232.9922943115234400,141.0413055419922000,18.4275703430175780,30.6413307189941400,115,4130,48,50,47,9535,2146961837,2147516160,2147273709,2147449590,2147075858,2146961298,2147652306,2147123446,2059,-1,8,18168
1379086635,5804,327.7600097656250000,18.4538993835449220,36.5568008422851560,233.5903930664062500,140.2722015380859400,18.4508209228515620,30.6021595001220700,117,4130,49,50,46,9534,2146958564,2147514660,2147272118,2147447213,2147075419,2146960777,2147652507,2147127222,1028,-1,8,51074
1379086774,5805,316.6700134277344000,18.5023002624511720,36.5598983764648440,231.4963073730468800,138.7552032470703000,18.4966793060302730,30.6838493347167970,116,4130,48,50,48,9533,2146960566,2147517778,2147273709,2147446034,2147069741,2146962870,2147654957,2147127323,3217,-1,8,3334
1379086915,5806,304.8200073242187500,18.5442008972167970,36.5619010925293000,229.6287994384765600,137.2581024169922000,18.5419406890869140,30.7554397583007800,115,4130,48,50,47,9532,2146960530,2147513755,2147267245,2147447890,2147079862,2146962770,2147658523,2147131300,2143,-1,8,61918
1379087042,5806,293.7600097656250000,18.6931991577148440,36.5835990905761700,221.2653961181640600,132.6430969238281200,18.6815204620361330,31.1153297424316400,116,4130,48,50,46,9531,2146963264,2147516059,2147271469,2147446994,2147075602,2146965421,2147660224,2147128813,1723,-2,8,22302
1379087169,5806,282.5700073242187500,18.7084007263183600,36.5732994079589840,216.5850067138672000,131.6596984863281200,18.7112693786621100,31.3458499908447270,116,4130,47,50,48,9528,2146956745,2147514166,2147271533,2147446528,2147078281,2146962944,2147665874,2147128905,910,-1,8,59316
1379087298,5807,271.2799987792969000,18.7831001281738280,36.5806999206543000,216.4286041259765600,129.3538055419922000,18.7810306549072270,31.3231391906738280,117,4130,48,50,48,9530,2146959405,2147514715,2147270838,2147445613,2147083510,2146964406,2147671853,2147128320,231,-1,8,56465
1379087425,5805,260.5199890136719000,18.8241996765136720,36.5764999389648440,218.0214996337890600,127.9860992431640600,18.8224105834960940,31.2208194732666000,115,4130,46,49,47,9526,2146960685,2147513005,2147273170,2147445238,2147072905,2146969014,2147680603,2147129718,2438,-1,8,53825
1379087554,5802,249.8300018310547000,18.8854999542236330,36.5793991088867200,219.3229064941406200,126.0901031494140600,18.8797893524169920,31.1278305053710940,116,4130,48,49,47,9527,2146960932,2147514797,2147269979,2147444397,2147079853,2146970651,2147691300,2147130157,2044,-1,8,546
1379087693,5804,238.6699981689453000,19.0006999969482420,36.5847015380859400,219.3943939208984400,122.2811965942382800,18.9950904846191400,31.0728797912597660,116,4130,49,50,47,9525,2146959652,2147519094,2147275346,2147442834,2147081508,2146980489,2147714834,2147128438,1210,-1,8,39999
1379087834,5805,227.2299957275390600,19.0925998687744140,36.5898017883300800,219.0072021484375000,119.2065963745117200,19.0881805419921880,31.0519199371337900,116,4130,48,50,47,9522,2146964059,2147512969,2147271360,2147444150,2147076324,2146982427,2147722368,2147129636,877,-1,8,2047
1379087973,5806,216.3500061035156200,19.2723999023437500,36.6059989929199200,213.8236999511718800,113.3175964355468800,19.2665691375732420,31.2460308074951170,115,4130,48,50,47,9527,2146957348,2147515264,2147270875,2147442752,2147078720,2147001974,2147761865,2147134381,2954,-2,8,49946
1379088112,5807,205.9100036621093800,19.3938999176025400,36.5996017456054700,214.6865997314453000,109.2584991455078100,19.3896007537841800,31.1458206176757800,116,4130,48,50,47,9523,2146963392,2147517357,2147273865,2147444836,2147085074,2147033920,2147822893,2147137033,3248,-1,8,19056
1379088240,5806,197.8899993896484400,19.5067005157470700,36.6013984680175800,218.7407989501953000,105.4926986694336000,19.5037708282470700,30.8829708099365230,117,4130,49,50,48,9523,2146958683,2147518774,2147274130,2147441801,2147091684,2147059821,2147863625,2147141878,157,-1,8,61079
1379088307,5807,194.2700042724609400,19.5557994842529300,36.6044998168945300,220.4342041015625000,103.9848022460937500,19.5494995117187500,30.7755699157714840,117,4130,48,50,48,9522,2146957686,2147515437,2147277513,2147442578,2147089499,2147071899,2147880027,2147140580,592,-1,9,53011
1379088386,5806,190.1000061035156200,19.6382007598876950,36.6049003601074200,220.8733978271484400,101.1570968627929700,19.6352691650390620,30.7155609130859380,117,4130,47,50,48,9521,2146962779,2147517787,2147279195,2147440539,2147088758,2147085869,2147916955,2147143853,768,-1,8,26068
1379088465,5807,186.2799987792968800,19.7136001586914060,36.6063003540039060,221.1192016601562500,98.8346786499023400,19.7057399749755860,30.6722908020019530,117,4130,48,49,48,9518,2146962651,2147518418,2147276260,2147438948,2147094308,2147090724,2147926107,2147147108,3554,-2,8,13336
1379088546,5807,182.5899963378906200,19.7994995117187500,36.6078987121582000,220.5285949707031200,96.1557769775390600,19.7870407104492200,30.6672706604003900,117,4130,48,49,46,9519,2146962459,2147522889,2147278144,2147438217,2147103780,2147105572,2147943259,2147144704,2754,-1,8,16504
1379088637,5802,178.8300018310547000,19.8983001708984380,36.6091995239257800,220.1022949218750000,92.9067764282226600,19.8856792449951170,30.6462707519531250,117,4130,49,50,46,9518,2146958400,2147521974,2147280155,2147440694,2147098468,2147131547,2147994852,2147150281,1983,-1,8,50377
1379088740,5804,174.8999938964843800,19.9948005676269530,36.6076011657714840,219.4201965332031200,89.6285629272461000,19.9852409362792970,30.6378307342529300,117,4130,48,50,48,9516,2146959341,2147518656,2147278153,2147440749,2147103542,2147135506,2147995044,2147148946,2018,-1,8,8630
1379088857,5807,170.6000061035156200,20.1004009246826170,36.6115989685058600,220.7779998779297000,86.1914978027343800,20.0896701812744140,30.5232200622558600,116,4130,48,50,46,9514,2146960118,2147521371,2147284013,2147439524,2147112219,2147192356,2148096073,2147157357,1471,-1,9,60201
1379088948,5805,166.4299926757812500,20.2346000671386720,36.6147003173828100,222.0323944091797000,81.5525436401367200,20.2306804656982420,30.3987407684326170,116,4130,47,50,47,9511,2146960704,2147524160,2147282870,2147437924,2147121892,2147230564,2148160182,2147160886,1445,-1,9,4234
1379089039,5805,162.8600006103515600,20.3414001464843750,36.6153984069824200,222.5368041992187500,78.1510772705078100,20.3341293334960940,30.3287105560302730,116,4130,48,50,47,9508,2146959661,2147521700,2147285860,2147436123,2147131437,2147269275,2148221229,2147166765,1520,-1,8,21877
1379089144,5806,158.6100006103515600,20.3913993835449220,36.6143989562988300,222.9889068603515600,76.2739334106445300,20.3912391662597660,30.2813701629638670,116,4130,48,50,47,9505,2146959204,2147526107,2147288493,2147439094,2147149586,2147333440,2148314688,2147171108,2010,-2,9,64169
1379089235,5806,154.8699951171875000,20.5326004028320300,36.6100997924804700,223.0379943847656200,71.8611602783203100,20.5255393981933600,30.2212600708007800,116,4130,47,50,47,9506,2146964928,2147526107,2147291556,2147438208,2147162669,2147390985,2148403940,2147175917,2579,-1,8,22266
1379089338,5804,150.5000000000000000,20.6469001770019530,36.6072998046875000,225.6197052001953000,68.2617263793945300,20.6351394653320300,30.0455894470214840,117,4130,47,50,46,9505,2146964845,2147528000,2147296393,2147436196,2147181696,2147468342,2148502582,2147185508,3065,-1,8,42283
1379089429,5804,146.6399993896484400,20.7567996978759770,36.6049995422363300,229.4931945800781200,64.6357574462890600,20.7456092834472660,29.8094501495361330,116,4130,48,50,47,9507,2146963309,2147531803,2147301549,2147438262,2147212077,2147581760,2148675209,2147197604,3144,-1,8,22123
1379089534,5804,143.1100006103515600,20.8700008392334000,36.5999984741210940,231.5939941406250000,61.0021095275878900,20.8563594818115230,29.6614894866943360,116,4130,48,50,47,9506,2146963776,2147532818,2147305234,2147439204,2147242102,2147680694,2148822674,2147203693,3207,-1,8,53710
1379089745,5807,139.7700042724609400,20.9990005493164060,36.6015014648437500,225.6224060058593800,56.9011116027832000,20.9814300537109380,29.8984107971191400,116,4130,49,49,47,9502,2146963035,2147538212,2147308854,2147436132,2147269705,2147770294,2148962377,2147218020,275,-1,9,59828
1379089939,5806,135.1300048828125000,21.1886005401611330,36.6054000854492200,233.6741027832031200,50.5295486450195300,21.1758804321289060,29.4281291961669920,116,4130,47,50,47,9503,2146966802,2147539785,2147304932,2147435629,2147268845,2147687826,2148757860,2147207570,3111,-1,9,6481
1379090078,5808,131.1799926757812500,21.3854007720947270,36.6046981811523440,237.7214050292968800,44.1578102111816400,21.3705196380615230,29.1579399108886720,116,4130,47,50,48,9504,2146970212,2147544128,2147324800,2147434386,2147393782,2148126436,2149470390,2147258422,2659,-2,9,57065
1379090212,5806,126.9800033569336000,21.6093997955322270,36.6069984436035160,243.0438995361328000,36.6118888854980500,21.6012802124023440,28.8204097747802730,116,4130,47,50,47,9497,2146975286,2147553792,2147334628,2147433490,2147477558,2148312804,2149705161,2147276598,2194,-2,8,4260
1379090339,5807,122.9300003051757800,21.8453006744384770,36.6003990173339840,246.6044006347656200,28.9600391387939450,21.8355503082275400,28.5660591125488280,116,4130,48,50,47,9492,2146977938,2147562752,2147345353,2147435757,2147598043,2148588690,2150078930,2147304457,1753,-2,8,25006
1379090472,5806,118.5899963378906200,22.0907993316650400,36.5946998596191400,254.4981994628906200,21.2075901031494140,22.0732002258300780,28.1289405822753900,115,4130,48,50,46,9492,2146983232,2147573248,2147367268,2147435858,2147764480,2148973458,2150573220,2147346139,879,-1,8,9287
1379090563,5803,114.6800003051757800,22.3262004852294920,36.5965003967285160,257.6275939941406000,13.2579498291015620,22.3172302246093750,27.8991603851318360,116,4130,47,50,48,9490,2146989641,2147581714,2147379209,2147434697,2147924352,2149317019,2151003099,2147380242,952,-2,9,47607
1379090690,5805,111.1200027465820300,22.6072006225585940,36.6129989624023440,257.8775939941406000,4.1842989921569820,22.5961704254150400,27.7769699096679700,116,4130,48,50,47,9489,2146995858,2147594541,2147400274,2147434605,2148104329,2149686902,2151464027,2147420297,548,-2,8,4917
1379090823,5807,106.5999984741211000,23.0708999633789060,36.5702018737793000,267.7731018066406000,-10.8488302230834960,23.0593490600585940,27.1926593780517580,117,4130,48,49,47,9483,2147003840,2147610989,2147421147,2147432658,2148372086,2150158454,2151971181,2147464466,745,-1,8,41078
1379090938,5802,103.0800018310546900,23.2378997802734380,36.5393981933593750,265.5285034179687500,-16.0764999389648440,23.2207393646240230,27.2181606292724600,116,4130,49,50,46,9476,2147014500,2147625920,2147447186,2147432749,2148730203,2150875382,2152840694,2147541193,330,-1,8,8754
1379091131,5805,99.1600036621093800,23.6480998992919920,36.5402984619140600,264.5979003906250000,-28.8880500793457030,23.6169490814209000,27.0999107360839840,117,4130,47,51,46,9466,2147033874,2147657472,2147496173,2147432969,2149267611,2151858779,2154075236,2147659355,766,-1,8,64616
1379091210,5807,97.2900009155273400,23.8500995635986330,36.5248985290527340,260.6474914550781000,-35.4521713256835940,23.8203697204589840,27.1789894104003900,116,4130,48,49,48,9441,2147040192,2147669120,2147499766,2147433225,2149475465,2152190674,2154470409,2147704301,1573,-2,9,62634
1379091325,5803,95.6500015258789000,23.9125003814697270,36.5134010314941400,258.8446044921875000,-37.9586601257324200,23.8981208801269530,27.2219390869140620,116,4130,48,49,47,9440,2147053385,2147690212,2147528045,2147433014,2149808612,2152784841,2155173394,2147776713,1443,-2,9,24058
1379091411,5810,93.7900009155273400,23.9442005157470700,36.4814987182617200,261.9819946289062500,-39.2365913391113300,23.9377708435058600,27.0791206359863280,116,4130,47,50,47,9444,2147068178,2147703899,2147561627,2147434861,2150220928,2153397421,2155820681,2147848320,1151,-2,9,9403
1379091466,5804,91.8300018310546900,24.0249996185302730,36.4718017578125000,266.7773132324219000,-41.7087516784668000,24.0145206451416000,26.8584709167480470,116,4130,48,50,47,9445,2147025746,2147624283,2147420205,2147424073,2148995995,2150631725,2152027840,2147524114,1289,-2,9,15404
1379091521,5803,89.9800033569336000,24.0809993743896500,36.4655990600585940,255.7711029052734400,-43.5805091857910160,24.0726509094238280,27.2797298431396500,116,4130,48,50,47,9447,2147064740,2147688978,2147522230,2147430994,2150034404,2152715867,2154735030,2147775286,1560,-2,9,5357
1379091588,5804,88.0100021362304700,24.2129993438720700,36.4510993957519500,267.9183959960937500,-47.6092185974121100,24.1978607177734380,26.7425403594970700,116,4130,49,50,47,9448,2147137746,2147802761,2147680822,2147442505,2152018669,2156275474,2158976859,2148185563,1347,-1,8,40863
1379091655,5805,86.4800033569336000,24.3197994232177730,36.4463996887207000,283.0368957519531000,-50.9240303039550800,24.3009605407714840,26.1305503845214840,115,4130,49,50,45,9450,2147149092,2147821540,2147715145,2147448173,2152343926,2156710610,2159399862,2148238848,1008,-2,9,35941
1379091740,5806,84.4199981689453100,24.4892005920410160,36.4311981201171900,309.4927062988281000,-56.2591896057128900,24.4670696258544920,25.1468791961669920,114,4130,48,50,47,9454,2147186011,2147872832,2147767396,2147446272,2153222546,2158080475,2160728064,2148386907,193,-1,8,28485
1379091795,5805,82.6999969482421900,24.5718002319335940,36.4267997741699200,322.7727050781250000,-59.4607009887695300,24.5668392181396500,24.6812400817871100,114,4130,48,50,45,9447,2147221842,2147913508,2147825362,2147450203,2154060690,2159270619,2161861696,2148513051,436,-1,8,17147
1379091850,5809,81.2300033569336000,24.7103004455566400,36.4145011901855500,323.4224853515625000,-63.4574508666992200,24.6914997100830080,24.6146507263183600,114,4130,49,50,46,9453,2147230537,2147927405,2147815945,2147447168,2154233627,2159392585,2161784905,2148521270,83,-1,8,33616
1379091941,5803,79.5000000000000000,24.7511997222900400,36.4100990295410160,344.9414978027344000,-65.1288681030273400,24.7436695098876950,23.9437503814697270,115,4130,49,50,47,9453,2147273133,2147977618,2147849197,2147449462,2155416886,2161165248,2163415506,2148680786,2411,-1,8,13536
1379092062,5804,76.8000030517578100,24.9001998901367200,36.3903007507324200,326.2797851562500000,-69.8808288574218800,24.8920993804931640,24.4514198303222660,115,4130,48,50,47,9455,2147355812,2148088530,2147976914,2147455259,2157710290,2164358427,2166330432,2148997174,1425,-1,9,43493
1379092117,5810,75.1100006103515600,25.0482006072998050,36.3778991699218750,338.3091125488281000,-74.4515380859375000,25.0350208282470700,24.0331497192382800,115,4130,49,50,47,9455,2147409481,2148158902,2148068553,2147462162,2159184594,2166395693,2168073700,2149184283,1070,-1,8,54441
1379092196,5805,73.3499984741211000,25.1583995819091800,36.3709983825683600,371.1423034667969000,-78.1110534667968800,25.1495704650878900,23.0630207061767580,113,4130,48,50,47,9451,2147467373,2148219373,2148086848,2147463177,2160442614,2168023844,2169141659,2149297984,3444,-1,9,55619
1379092299,5804,71.2799987792968800,25.2521991729736330,36.3633003234863300,427.0198974609375000,-81.0506668090820300,25.2416591644287100,21.6400699615478500,113,4130,48,50,47,9456,2147551049,2148319469,2148175908,2147465819,2162555821,2170855716,2171503387,2149552859,3318,-2,9,34742
1379092385,5805,68.5999984741211000,25.4155998229980470,36.3404998779296900,440.4666137695312500,-86.0371932983398400,25.3980197906494140,21.2802295684814450,114,4130,47,50,46,9449,2147706761,2148497408,2148331849,2147478381,2166595702,2176222820,2175956013,2150055469,3094,-1,8,36900
1379092440,5806,66.4499969482421900,25.4920005798339840,36.3264999389648440,454.6405944824219000,-88.7879714965820300,25.4843597412109380,20.9391899108886720,113,4130,48,50,47,9450,2147827053,2148627995,2148445531,2147483657,2169560868,2180018614,2178992457,2150417444,3073,-1,8,5415
1379092495,5810,64.7699966430664000,25.6553993225097660,36.3344993591308600,473.8919982910156000,-93.5739669799804700,25.6347198486328120,20.4810905456542970,113,4130,47,50,46,9452,2147945846,2148768411,2148591469,2147500635,2172619072,2183797110,2181894217,2150738752,3503,-2,9,37877
1379092562,5805,63.4199981689453100,25.8160991668701170,36.3475990295410160,516.5731811523438000,-98.0318679809570300,25.7749404907226560,19.5913200378417970,112,4130,47,50,46,9456,2147920932,2148706194,2148512274,2147505627,2172288402,2182321088,2179671158,2150520384,369,-1,9,3919
1379092719,5807,61.2799987792968750,26.1492996215820300,36.3322982788085940,594.1884765625000000,-109.2535018920898400,26.1286392211914060,18.1111297607421880,114,4130,48,49,46,9451,2148294601,2149137910,2148929280,2147539428,2181290112,2194220105,2189463259,2151618276,345,-1,9,42227
1379092798,5809,59.3499984741210940,26.2586002349853500,36.3385009765625000,543.8701782226562000,-113.0475997924804700,26.2484607696533200,18.9302806854248050,113,4130,47,50,47,9449,2147935634,2148632676,2148318509,2147479963,2172581906,2180517979,2176059282,2150103424,164,-1,9,65385
1379092889,5803,57.3899993896484400,26.4799995422363280,36.3348999023437500,574.6580200195312000,-119.7902984619140600,26.4617099761962900,18.3243598937988280,112,4130,47,50,46,9451,2148090240,2148792466,2148486738,2147509586,2176695835,2184895643,2178993956,2150626212,917,-1,9,8462
1379093010,5806,55.1100006103515600,26.5568008422851560,36.3132019042968750,612.1807250976562000,-122.9134979248046900,26.5606307983398440,17.6780796051025400,113,4130,48,50,47,9441,2149060297,2149906084,2149594102,2147615881,2201185517,2216393161,2205426322,2153673216,838,-2,9,31869
1379093164,5804,50.9099998474121100,27.0461997985839840,36.2257003784179700,632.9771728515625000,-137.2610931396484400,27.0161209106445300,17.2040691375732420,114,4130,47,50,47,9413,2149564571,2150361728,2149958857,2147677339,2213580068,2228968073,2213524141,2154850660,759,-2,8,11573
1379093372,5810,48.8600006103515600,27.4304008483886720,36.1418991088867200,711.6956176757812000,-149.6755065917968800,27.4117698669433600,15.9392099380493160,112,4130,48,50,46,9425,2149864923,2150599213,2149973650,2147616256,2218732434,2234169654,2216512100,2155238363,3541,-2,9,17241
1379093783,5809,46.8899993896484400,27.5207996368408200,36.1109008789062500,740.6702880859375000,-153.6681060791015600,27.5393199920654300,15.5108003616333000,112,4130,48,50,47,9432,2150586349,2151201179,2150294235,2147613321,2236516653,2252507401,2228167597,2156685577,2717,-2,9,37453
1379093907,5806,43.5800018310546900,27.5296993255615230,36.1054000854492200,657.2327880859375000,-153.6958007812500000,27.5401992797851560,16.6684894561767580,112,4130,48,51,47,9436,2151505755,2152034953,2150867757,2147670756,2256969060,2272675894,2241283986,2158736429,2378,-1,9,9730
1379093952,5809,41.5900001525878900,27.5314006805419920,36.1049995422363300,619.6035156250000000,-153.7234954833984400,27.5410900115966800,17.2384605407714840,111,4130,47,50,47,9436,2151977920,2152432356,2151127899,2147692160,2269883620,2285509101,2249566500,2159912594,2263,-1,9,57704
1379093997,5804,39.5499992370605500,27.5305995941162100,36.1060981750488300,594.4177246093750000,-153.7586975097656200,27.5422096252441400,17.6392707824707030,111,4130,48,51,47,9428,2152492160,2152882075,2151429622,2147731721,2284642194,2300277586,2259362870,2161540233,2186,-1,9,37489
1379094042,5806,37.5699996948242200,27.5305004119873050,36.1044998168945300,577.2075805664062000,-153.7590942382812500,27.5422191619873050,17.9233303070068360,112,4130,47,50,46,9435,2152934875,2153245714,2151665810,2147760685,2297106441,2311433142,2265444205,2162714368,2145,-2,8,50227